Powrót do katalogu

STARLINK-34173

AktywnyŁącznośćVLEO
NORAD 64196·PAYLOAD·🇺🇸 United States

Wystrzelony May 28, 2025 z Cape Canaveral Space Force Station

Loading…

Następne Przeloty (najbliższe 24 godziny)

TLE

ŚwieżeSource: CelesTrak SupGP

Epoka: Sep 15, 2026, 03:23 UTC

1 64196C 25113AC  26258.14145833  .00001843  00000+0  59237-4 0  2583
2 64196  53.1593 289.7072 0001319  93.5004 183.2705 15.31708476    13

Śledź STARLINK-34173 w czasie rzeczywistym z AllMySat

Download on the App Store